Location: Newark
(39.0622°N, 106.5590°E)
Time: 21:01:04
(UTC+00:00)

Vanguard 2 Rocket - Pass Details

Date: 24 January 2020
Orbit: 553 x 3327 km, 32.9° (Epoch: 26 February)

Event Time Altitude Azimuth Distance (km) Brightness Sun altitude
Rises 04:29:03 0° 269° (W) 4,568 10.4 31.0°
Reaches altitude 10° 04:32:23 10° 256° (WSW) 3,965 10.3 31.1°
Maximum altitude 04:40:50 25° 207° (SSW) 3,727 11.2 31.3°
Drops below altitude 10° 04:52:52 10° 161° (SSE) 5,755 12.3 31.5°
Sets 04:59:15 0° 150° (SSE) 7,086 12.3 31.6°
